Location: Bay Wood
(40.7501°N, 73.2912°W)
Time: 13:43:14
(UTC+00:00)

Daily predictions for brighter satellites

Satellite Brightness Start Highest point End
(mag) Time Altitude Azimuth Time Altitude Azimuth Time Altitude Azimuth
CZ-4C R/B 3.7 22:11:10 10° NNW 22:17:16 29° NE 22:24:05 10° E
Cosmos 1726 2.6 22:16:24 10° NNW 22:20:02 66° W 22:23:38 10° S
Starlink Q 2.9 22:18:14 10° SW 22:21:00 53° SE 22:23:48 10° ENE
Starlink P 2.9 22:19:18 10° SW 22:22:05 55° SE 22:24:53 10° ENE
Starlink U 2.9 22:20:23 10° SW 22:23:11 57° SE 22:25:59 10° ENE
Starlink B 2.8 22:21:24 10° SW 22:24:13 58° SE 22:27:02 10° ENE
Starlink D 2.8 22:22:29 10° SW 22:25:18 60° SE 22:28:07 10° ENE
Starlink S 2.8 22:23:35 10° SW 22:26:24 62° SE 22:29:14 10° ENE
Cosmos 2074 Rocket 4.0 22:20:44 10° S 22:26:57 67° E 22:33:12 10° NNE
Starlink C 2.7 22:24:40 10° SW 22:27:29 64° SE 22:30:19 10° ENE
Starlink E 2.7 22:25:47 10° SW 22:28:37 67° SE 22:31:27 10° NE
Cosmos 1602 Rocket 4.4 22:24:51 10° SSE 22:28:41 30° E 22:32:30 10° NNE
Okean-O 2.9 22:24:31 10° SE 22:28:45 47° ENE 22:33:01 10° N
Starlink J 2.7 22:26:54 10° SW 22:29:45 69° SE 22:32:35 10° NE
H-2A R/B 3.1 22:26:52 10° S 22:30:38 71° W 22:34:28 10° NNW
Starlink V 2.6 22:28:00 10° SW 22:30:50 71° SE 22:33:36 11° NE
Envisat 3.0 22:26:29 10° SSE 22:31:28 61° ENE 22:36:29 10° N
Starlink H 2.6 22:29:08 10° SW 22:31:59 74° SE 22:34:42 11° NE
Starlink F 2.6 22:30:16 10° SW 22:33:07 76° SE 22:35:48 11° NE
Starlink AR 2.2 22:31:38 10° SW 22:34:09 85° SE 22:36:25 12° NE
Starlink G 2.6 22:31:24 10° SW 22:34:16 79° SE 22:36:54 12° NE
Starlink L 2.6 22:32:32 10° SW 22:35:24 81° SE 22:38:00 12° NE
Cosmos 1626 2.7 22:32:17 10° SSE 22:35:40 35° E 22:39:05 10° NNE
Okean O Rocket 4.2 22:32:52 10° SSW 22:36:31 25° W 22:40:12 10° NW
Starlink A 2.6 22:33:41 10° SW 22:36:33 84° SE 22:39:07 12° NE
USA 234 4.0 22:30:46 10° SSE 22:37:09 57° SW 22:43:35 10° NW
SMAP 3.5 22:32:41 10° S 22:37:17 67° WSW 22:41:57 10° NNW
Starlink R 2.6 22:34:50 10° SW 22:37:42 86° SE 22:40:14 13° NE
COSMO-SKYMED 1 3.0 22:33:40 10° NNE 22:37:49 42° E 22:41:56 10° S
Starlink K 2.6 22:35:57 10° SW 22:38:49 89° ESE 22:41:18 13° NE
Cosmos 2333 4.2 22:33:58 10° NNW 22:39:40 65° ENE 22:45:17 10° SE
Starlink M 2.6 22:37:03 10° SW 22:39:55 89° NW 22:42:21 13° NE
Cosmos 1048 Rocket 4.4 22:35:14 10° N 22:40:02 38° ENE 22:44:47 10° SE
Cosmos 2322 3.7 22:35:56 10° NNW 22:41:36 76° ENE 22:47:16 10° SSE
ATLAS 5 CENTAUR R/B 2.9 22:39:15 10° WSW 22:43:07 34° NW 22:47:22 10° NNE
YAOGAN 6 2.7 22:41:56 10° SSE 22:45:33 55° ENE 22:49:10 10° N
Timation 2 Rocket 3.9 22:42:49 10° SSW 22:48:46 69° ESE 22:55:01 10° NNE
Alouette 2 Rocket 4.2 22:44:15 10° N 22:48:55 73° E 22:56:05 10° SSE
Nadezhda 3 Rocket 4.1 22:43:13 10° N 22:49:20 53° ENE 22:55:28 10° SSE
Cosmos 2297 Rocket 3.5 22:47:24 10° SE 22:51:18 19° E 22:53:37 15° ENE
Cosmos 1626 Rocket 3.4 22:48:17 10° S 22:52:37 72° E 22:56:56 10° NNE
Cosmos 372 Rocket 4.2 22:49:18 10° SSW 22:54:23 74° WNW 22:59:33 10° NNE
Cosmos 1242 Rocket 2.3 22:51:23 10° S 22:54:50 79° E 22:58:21 10° NNE
Cosmos 1174 4.4 22:55:06 10° NW 22:58:12 48° WSW 23:01:47 10° SSE
Cosmos 2298 Rocket 4.4 22:53:53 10° SSW 22:59:08 66° WNW 23:04:27 10° NNE
Cosmos 1461 3.2 22:55:43 10° NNW 22:59:55 48° NE 23:04:17 10° SE
Cosmos 2360 Rocket 3.6 22:54:43 10° NW 23:00:01 43° WSW 23:05:16 10° S
COSMOS 2428 2.7 22:54:42 10° NNW 23:00:25 63° ENE 23:06:05 10° SE
Cosmos 2341 Rocket 4.4 22:54:56 10° SSE 23:00:52 42° E 23:06:49 10° NNE
SKYMED 3 4.5 22:57:18 10° NNE 23:01:40 80° ESE 23:06:00 10° S
Cosmos 2084 Rocket 4.1 22:57:20 10° NW 23:01:44 61° WSW 23:06:05 10° SSE
Cosmos 2227 Rocket 3.3 22:58:36 10° SSE 23:02:50 22° E 23:04:35 19° ENE
NOAA 11 4.4 22:59:58 10° SE 23:05:10 45° ENE 23:10:23 10° N
Cosmos 2219 Rocket 2.1 23:03:58 10° NNW 23:09:41 77° ENE 23:15:20 10° SSE
ERBS 4.1 23:09:56 10° SSE 23:11:59 17° SE 23:11:59 17° SE
Cosmos 1825 Rocket 4.2 23:08:20 10° SSE 23:12:15 33° E 23:14:11 22° NE
SL-8 Rocket 4.5 23:07:38 10° SSE 23:13:21 38° E 23:19:05 10° NNE
Ariane Rocket 3.9 23:13:33 22° E 23:15:02 26° ENE 23:19:10 10° N
CZ-2D R/B 3.6 23:11:55 10° SE 23:15:30 40° ENE 23:19:07 10° N
SJ 16-02 4.5 23:19:30 10° WNW 23:19:38 10° NW 23:19:45 10° NW
DELTA 2 R/B (1) 4.2 23:15:53 10° SW 23:21:10 45° SSE 23:23:55 26° E
Cosmos 1340 Rocket 2.6 23:18:13 10° N 23:22:10 74° E 23:26:07 10° SSE
Cosmos 494 Rocket 4.0 23:20:30 10° N 23:25:32 55° ENE 23:30:32 10° SE
NOSS 0 Rocket 3.9 23:19:24 10° NNW 23:25:35 60° ENE 23:31:40 10° SE
SKYMED 2 4.3 23:21:35 10° N 23:25:50 54° WNW 23:30:04 10° SSW
USA 32 3.9 23:21:51 10° S 23:27:02 73° E 23:32:15 10° N
Cosmos 1939 Rocket 2.7 23:24:42 10° SSE 23:28:30 59° ENE 23:32:22 10° N
Starlink AQ 4.4 23:31:39 10° W 23:34:03 24° NNW 23:34:17 24° NNW
Starlink AS 4.5 23:34:26 10° W 23:36:46 23° NNW 23:36:52 23° NNW
DMSP B5D1-3 4.4 23:31:40 10° NNE 23:36:47 73° ESE 23:41:51 10° S
Starlink BA 4.5 23:34:34 10° W 23:36:54 23° NNW 23:37:01 23° NNW
Cosmos 2218 Rocket 4.1 23:32:26 10° SSE 23:38:27 50° E 23:44:34 10° NNE
Meteor 1-21 Rocket 4.1 23:33:57 10° S 23:39:28 75° E 23:45:06 10° NNE
Cosmos 1300 4.0 23:36:06 10° NNW 23:39:42 40° W 23:43:17 10° SSW
CSL-04 Debris 4.2 23:35:51 10° SSE 23:41:13 81° WSW 23:46:39 10° NNW
ADEOS Rocket 3.3 23:35:04 10° NNE 23:41:24 55° E 23:48:23 10° S
Cosmos 1812 Rocket 4.2 23:37:10 10° NNW 23:41:35 58° W 23:45:57 10° S
YAOGAN 1 3.0 23:41:26 10° S 23:45:42 61° W 23:50:01 10° NNW
Cosmos 2333 Rocket 3.2 23:43:53 10° NW 23:49:21 48° WSW 23:54:45 10° S
CZ-4 R/B 2.8 23:46:31 10° SSW 23:50:13 38° W 23:54:02 10° NNW
Cosmos 1339 Rocket 4.3 23:47:38 10° N 23:53:40 62° E 23:59:42 10° SSE
